sat.trackr.live / text

‹ back to catalog

STARLINK-34439

NORAD 64458 · 2025-130W

PAYLOAD ACTIVE UNKNOWN

§ Identity

Operator
Country
US
Launch date
2025-06-18
Launch site
AFETR
Launch vehicle
Mass (kg)
RCS (m²)

Purposes: comms

External: N2YO · Heavens-Above · Gunter

§ Orbital elements

Epoch: 2026-05-25T00:37:25.619808Z

Period
94.02 min
Inclination
53.1580°
Eccentricity
0.0004011
Mean motion
15.31620783 rev/d
Perigee alt
468.2 km
Apogee alt
473.7 km
Semi-major
6,849.1 km
B*
2.7213e-2
RAAN
93.7315°
Arg perigee
187.2691°
Mean anomaly
172.8253°
Rev number
5,239

§ Raw data

STARLINK-344391 64458U 25130W   26145.02599097  .00907550  00000+0  27213-1 0  99982 64458  53.1580  93.7315 0004011 187.2691 172.8253 15.31620783 52392

JSON: /api/v1/satellites/64458 · /tle

For live sub-satellite position, see the globe view (requires WebGL).

§ Visibility from observer

Set your observer location to see the next 7 days of passes ≥ 10°. The values pass through the URL so the page stays shareable.

No JS? Fill the form by hand. The geolocation button needs JavaScript.